Weather in Steinkjer

Norway     64°00′46″N   11°29′32″E
temp.,
°C
wind,
m/s
gust,
m/s
humid.,
%
clouds,
%
prec.,
mm/h
press.,
hPa
HPBL,
m
16 october, sat
sat1623:00+3sw128197 0.2 100060
02:00+3sw4999100 4.2 998796
05:00+4wsw288698 1.2 997288
08:00+4wsw41096100 2.1 996848
11:00+6wnw41074100 1.0 996927
14:00+5nw61181100 2.0 9991393
17:00+3nw41196100 1.1 1003792
20:00+2wnw28765 1.8 1004177
17 october, sun
sun1723:00+3wnw4127145 0.3 1004596
02:00+4wnw61372100 0.6 1004977
05:00+4nw5126623 1.0 1005820
08:00+2wnw3127499 1.5 1005497
11:00+5nw410685 0.6 10071176
14:00+6nw4106621 1.0 10091410
17:00+5wnw4116827 0.4 1010669
20:00+3wnw3107683 1.0 1012311
18 october, mon
mon1823:00+3wnw2781100 1.1 1013186
02:00+2w0188100 2.1 101534
05:00+2s119442 0.3 101825
08:00+1wnw019110 0.3 102023
11:00+4nnw02816 0.0 1022123
14:00+6nnw24695 0.5 1023713
17:00+3n117758 0.2 102322
20:00+1e1185100 0.2 102414
19 october, tue
tue1923:000ene1188100 0.0 102319
02:000ene2388100 0.0 102190
05:000ene2489100 0.0 1017144
08:00+1e2779100 0.0 1014341
11:00+3ese3873100 0.0 1011493
14:00+3ese3778100 0.0 1008483
17:00+2e1492100 0.3 1006294
20:00+2e1298100 2.8 1003116
20 october, wed
wed2023:00+2e1296100 1.4 999100
02:00+3e1192100 1.5 99544
05:00+3ene1193100 0.3 99040
08:00+3e1195100 0.9 98636
11:00+4ese1194100 1.0 98477
14:00+4e1197100 4.1 98263
17:00+6ssw1397100 0.9 98089
20:00+4nnw2498100 1.1 980199